Temp
8 8 8 8 8 8 8 8 8 9 10 12 13 15 14 13 13 12 12 12 11 11 10 10 10 10 9 9 8 8 8 8 8 8 8 8 8 8 8 8 8 9
7 8 8 8 8 8 8 8 7 7 8 9 12 14 14 13 12 12 12 11 11 11 10 9 9 9 8 8 8 8 8 8 8 8 8 8 8 8 8 8 8 8
7 7 7 7 7 7 7 7 8 7 7 7 8 9 11 11 11 12 12 11 10 10 9 9 8 7 7 7 7 7 7 7 7 7 7 7 7 7 7 7 7 7
7 7 7 7 7 7 7 7 7 7 7 7 6 6 8 10 10 11 11 10 9 8 8 8 7 6 6 6 6 6 6 7 7 7 6 6 7 7 7 7 7 7
7 7 7 7 7 7 7 7 6 6 6 6 6 6 6 8 9 9 9 8 7 7 6 6 6 5 6 6 6 6 6 6 6 6 6 6 6 6 6 6 6 6
6 6 7 7 7 7 7 7 6 6 5 6 6 6 5 7 8 9 8 8 7 6 6 5 5 5 5 5 5 5 5 5 5 5 5 5 5 5 5 5 6 6
6 6 6 6 6 7 7 7 6 6 5 5 5 5 5 5 7 8 8 7 7 6 6 5 5 5 5 5 4 4 5 5 5 4 4 4 4 4 4 5 5 6
6 6 6 6 6 6 6 6 6 6 6 5 4 4 4 4 5 7 7 7 6 6 5 5 5 5 4 4 4 4 4 4 4 4 4 4 4 4 4 4 5 5
6 6 6 6 6 6 6 6 6 6 6 5 4 4 3 3 4 5 6 7 6 6 6 5 4 3 4 3 3 3 4 4 4 3 3 3 3 3 3 4 4 5
6 5 5 5 5 5 5 6 6 5 5 5 5 4 3 3 3 3 4 5 6 6 5 4 3 3 3 3 3 3 3 3 3 3 3 3 3 3 3 4 4 5
6 5 5 5 5 5 5 5 4 5 5 5 5 4 4 3 3 2 2 3 5 6 5 3 3 3 2 2 3 3 3 3 3 2 2 3 3 4 4 4 5 5
5 5 5 5 5 5 5 4 4 4 4 4 4 4 4 3 3 3 2 3 3 4 3 3 3 3 3 2 3 3 3 2 3 2 2 3 3 4 4 4 4 5
5 5 5 4 4 4 4 4 3 3 4 4 4 4 3 3 3 3 2 2 2 2 2 2 2 2 2 2 2 2 2 2 2 2 2 3 3 3 3 4 4 4
5 4 4 4 4 4 4 4 3 3 3 3 3 3 3 3 3 2 2 2 1 1 1 1 2 2 2 2 1 1 2 2 2 2 2 2 2 3 3 4 4 4
4 4 4 3 3 3 3 3 3 3 2 2 3 2 2 2 2 2 2 1 1 0 0 1 1 1 1 1 1 1 2 2 2 2 2 2 2 2 3 3 3 4
4 4 3 3 3 3 3 3 3 2 2 2 2 2 2 1 1 1 1 1 1 0 0 0 -0 0 0 1 1 1 1 1 1 1 1 2 2 2 2 2 2 3
3 3 3 3 3 3 2 2 2 2 1 1 1 1 1 1 1 1 0 0 0 0 0 -0 -0 -0 -0 0 1 1 1 1 1 1 1 2 2 2 1 1 1 1
3 3 3 2 2 2 2 2 2 1 1 1 0 0 0 0 0 0 -0 -0 -0 -0 -0 -0 -0 -0 -0 0 1 1 1 1 1 1 1 2 2 2 1 1 0 0
2 2 2 2 2 2 1 1 1 1 1 0 0 -0 -0 -0 -0 -1 -1 -1 -1 -1 -0 -0 -0 -0 -0 0 0 1 1 2 1 1 1 1 1 1 1 0 -0 -0
2 2 2 2 2 1 1 1 0 0 0 -0 -0 -1 -1 -1 -1 -1 -1 -1 -1 -1 -1 -1 -0 -0 -0 -0 0 1 1 2 1 1 1 1 1 1 1 0 0 0
2 2 2 2 1 0 0 0 -0 -0 -0 -1 -1 -1 -1 -1 -1 -1 -1 -1 -1 -1 -1 -1 -1 -0 -0 -0 0 1 1 1 1 1 1 0 0 0 0 0 1 1
1 1 1 1 0 -0 -0 -0 -1 -1 -1 -1 -1 -1 -1 -1 -1 -1 -1 -1 -1 -1 -1 -1 -1 -1 -1 -0 0 1 0 0 0 0 -0 -0 -1 -0 0 1 1 1
1 1 1 0 -0 -0 -1 -1 -1 -1 -1 -2 -2 -2 -2 -2 -1 -1 -1 -1 -1 -1 -1 -1 -1 -1 -1 -1 -0 0 -0 -0 -0 -0 -1 -1 -1 -1 -0 0 0 1
1 1 0 -0 -1 -1 -1 -1 -1 -1 -2 -2 -2 -2 -2 -2 -2 -2 -2 -1 -1 -1 -1 -1 -1 -1 -1 -1 -0 -0 -1 -1 -1 -1 -1 -1 -1 -1 -1 -0 -0 -0
0 0 -0 -1 -1 -1 -1 -1 -1 -2 -2 -2 -2 -2 -2 -2 -2 -2 -2 -2 -2 -1 -1 -1 -1 -1 -1 -1 -1 -1 -1 -1 -1 -1 -1 -1 -1 -1 -1 -1 -1 -1
-0 -0 -0 -1 -1 -1 -1 -1 -2 -2 -2 -2 -2 -2 -2 -2 -2 -2 -2 -2 -2 -2 -1 -1 -1 -1 -1 -1 -1 -1 -1 -0 -1 -1 -1 -1 -1 -2 -2 -2 -2 -1
Height
739 741 742 744 745 746 748 749 750 749 747 746 749 754 761 767 773 777 781 784 786 789 793 795 798 800 802 804 807 809 813 815 817 819 821 824 826 829 832 835 837 839
736 738 740 741 743 744 746 747 748 749 749 748 748 748 753 761 767 772 777 781 783 786 790 793 795 797 799 801 804 806 809 813 815 817 819 822 824 827 829 832 835 838
732 735 737 738 740 742 744 746 747 748 749 750 750 749 749 754 761 766 771 776 779 783 786 789 792 794 796 799 802 804 806 809 812 814 817 820 822 824 827 830 833 836
727 730 732 735 737 739 742 744 745 746 747 748 751 752 749 750 755 761 766 770 775 780 783 786 789 792 794 797 800 802 805 807 810 813 815 818 820 822 825 827 830 834
723 725 728 731 733 736 738 741 742 744 745 747 749 753 751 749 750 754 760 766 771 776 780 783 786 790 792 795 797 800 803 806 808 811 813 815 818 820 822 825 828 831
721 721 723 726 729 732 734 736 739 741 744 745 747 750 751 749 747 749 754 761 766 772 776 780 784 787 790 792 795 798 800 803 805 808 811 813 816 818 820 823 825 829
719 720 721 722 724 727 729 732 735 738 741 743 744 746 748 748 747 747 750 756 762 767 772 777 780 783 786 789 792 795 797 800 803 806 809 811 814 817 819 821 823 826
716 718 720 721 721 722 724 727 730 733 737 740 742 743 745 747 747 747 748 752 758 763 769 774 778 780 783 786 790 792 793 796 800 803 806 809 812 815 817 819 821 823
714 716 718 719 719 719 720 722 725 728 732 735 738 741 743 745 747 747 747 749 754 760 765 771 775 777 780 783 786 788 789 792 797 800 803 806 808 811 815 817 819 821
711 713 715 716 717 717 717 718 720 723 727 731 735 738 740 743 746 748 749 748 751 756 762 767 771 774 777 780 782 784 785 788 793 798 801 803 805 808 812 815 817 818
706 709 711 713 714 716 716 717 718 720 723 727 731 735 738 741 745 748 749 749 749 752 757 762 766 770 773 776 778 780 783 787 791 795 798 801 804 807 810 812 814 816
702 704 706 708 711 713 715 716 717 717 719 723 726 731 735 739 742 746 748 749 749 751 754 757 762 766 769 772 775 777 780 784 789 793 796 799 802 804 807 809 812 814
699 700 702 705 708 711 713 715 716 716 716 719 722 727 732 736 739 742 745 747 749 750 753 756 759 762 765 769 772 774 777 781 786 790 793 796 799 802 804 807 810 812
697 699 701 704 707 709 711 713 715 716 717 718 720 723 727 731 734 738 741 745 747 749 752 755 757 760 762 765 768 772 776 779 782 786 790 793 797 800 803 805 807 810
696 698 700 703 705 707 709 710 712 715 717 718 719 721 725 728 732 735 738 741 744 748 751 753 756 758 759 762 765 769 773 776 779 782 786 790 794 797 800 803 805 807
695 697 699 701 703 705 706 708 710 713 715 717 718 720 723 727 730 733 736 738 741 744 748 751 754 757 758 760 762 766 769 773 776 780 784 788 791 794 798 801 803 805
693 695 698 700 701 703 705 706 708 710 713 715 718 720 722 724 727 730 733 736 738 741 745 748 752 755 758 759 761 763 767 770 774 778 782 785 788 791 794 798 800 803
692 694 696 698 700 702 704 705 707 709 710 713 716 718 719 722 725 728 731 734 737 739 742 745 749 753 756 758 760 762 765 769 773 776 780 783 786 788 791 794 798 801
690 692 694 696 698 700 702 704 705 707 708 711 713 716 718 720 723 727 729 732 736 738 740 743 746 750 754 756 758 761 764 768 772 775 777 780 783 785 788 791 795 799
689 691 693 695 697 698 700 702 704 705 707 710 712 714 717 719 722 725 728 731 733 736 739 741 744 747 750 754 757 760 763 767 770 774 776 779 781 783 785 789 793 797
688 690 692 694 696 697 698 700 702 704 706 709 711 713 715 717 719 723 726 729 732 735 738 740 742 745 748 751 754 758 762 765 769 772 775 777 780 782 784 787 791 794
686 689 690 692 694 696 696 698 700 703 705 708 710 713 715 717 719 721 723 727 730 733 736 738 740 743 746 749 752 756 759 763 767 770 773 776 779 781 783 786 789 792
684 687 689 690 692 694 695 697 699 701 704 707 709 712 714 715 717 718 720 724 728 731 734 736 739 741 743 746 750 753 756 760 764 767 771 774 777 780 782 785 787 789
683 685 687 689 691 692 693 695 697 699 702 705 708 710 712 714 716 718 720 723 726 729 731 734 736 739 741 744 747 751 754 757 761 765 769 772 775 778 781 782 785 787
682 684 685 687 689 691 693 694 696 698 701 703 706 708 710 713 715 717 719 721 724 727 730 732 734 736 739 742 745 749 752 755 759 762 766 770 773 776 778 780 783 785
681 682 684 686 688 690 692 694 695 697 699 702 704 707 709 711 714 716 718 720 723 726 729 730 731 733 736 739 742 746 749 753 756 759 762 766 769 772 774 777 780 783
Wind_Speed
29 30 30 32 33 33 34 34 34 38 44 48 49 46 43 43 43 41 39 39 38 38 39 39 39 39 40 40 40 39 38 38 37 37 37 37 36 35 35 34 33 33
31 31 31 32 33 33 33 33 33 34 36 41 45 48 48 46 45 44 41 40 39 39 39 39 39 40 40 40 40 40 40 38 37 37 37 37 36 35 36 35 33 33
32 32 33 33 33 33 33 33 34 34 33 33 35 41 47 47 46 44 42 41 40 40 39 39 39 39 39 39 39 39 40 39 38 38 37 37 37 36 36 35 34 32
35 34 34 34 34 33 33 32 33 34 34 33 32 34 42 46 45 44 43 42 40 40 39 38 38 38 38 37 38 38 37 38 38 37 37 36 36 36 35 34 33 32
36 36 35 35 35 34 34 33 33 33 34 35 35 35 38 43 44 44 43 42 40 39 38 37 36 36 37 36 37 37 36 36 36 37 36 36 35 35 35 34 33 31
34 37 37 36 35 35 35 35 34 33 33 34 36 37 37 40 42 43 43 42 40 38 36 36 36 36 36 37 36 36 37 36 36 36 36 36 35 34 34 33 32 30
32 34 36 37 36 36 36 36 35 34 34 33 34 36 36 37 40 42 42 41 39 38 37 37 37 37 37 37 37 37 37 36 36 35 35 35 34 33 33 32 31 30
30 31 33 34 36 36 36 36 36 36 35 34 33 34 35 35 38 40 41 40 39 38 37 37 37 38 38 38 38 38 37 36 36 36 35 34 33 33 33 32 31 30
29 30 32 33 34 36 37 38 37 37 36 36 34 33 33 33 34 37 39 40 39 38 37 38 38 39 39 40 39 39 38 37 36 36 36 36 35 34 33 32 31 30
30 29 31 33 34 35 37 39 39 38 38 38 36 34 33 33 32 33 36 39 40 39 39 39 39 39 39 40 40 38 38 38 37 36 36 36 36 34 33 32 32 31
32 31 31 33 35 35 36 37 38 38 38 38 38 36 35 34 33 33 34 37 40 41 42 42 41 41 40 40 39 39 38 38 37 37 36 35 34 34 33 33 32 31
32 32 32 34 35 35 34 34 36 38 39 39 39 39 37 36 36 36 36 37 39 40 42 43 42 42 41 40 39 39 38 38 37 37 36 35 34 34 34 33 32 31
33 32 32 33 34 34 33 33 34 37 39 40 40 39 39 38 38 38 38 38 37 37 38 40 41 41 40 39 39 39 39 38 38 37 36 35 35 34 33 32 31 30
31 30 29 29 30 31 31 32 33 34 36 38 38 39 40 41 40 40 39 37 35 35 36 37 39 40 40 40 39 39 39 39 38 37 36 34 33 33 32 31 30 30
25 25 26 27 28 29 30 32 33 33 33 35 37 38 38 38 38 38 38 37 35 34 34 35 37 39 40 41 41 40 40 39 38 37 36 35 33 32 31 31 31 31
22 22 23 25 27 29 30 32 33 32 32 33 35 36 35 35 35 35 36 36 36 35 34 34 35 36 39 41 41 41 40 38 37 36 36 35 34 33 31 31 31 30
21 21 22 24 27 28 29 31 32 32 32 32 32 33 33 33 34 34 34 34 35 36 36 35 35 34 36 38 40 40 39 38 36 36 35 35 34 34 33 31 30 29
21 22 23 24 26 27 28 30 32 31 31 31 31 32 32 33 33 34 34 33 34 35 36 36 36 35 35 37 39 39 38 37 36 36 35 34 34 33 33 31 30 29
21 23 24 25 26 28 28 29 31 31 32 32 32 32 32 33 32 32 32 33 33 34 35 35 36 36 37 38 38 38 38 36 36 35 35 34 34 33 32 31 31 30
21 22 24 24 25 27 28 29 30 31 31 31 31 31 31 32 33 32 33 33 34 34 34 34 35 36 37 38 38 38 37 36 35 34 34 33 33 33 33 33 33 33
22 23 24 24 25 26 27 29 29 29 29 29 30 31 31 33 34 34 33 33 34 34 34 34 35 36 37 39 39 38 37 35 34 33 32 32 31 32 33 33 33 33
23 24 24 24 25 25 26 27 28 28 28 28 29 29 29 30 32 33 33 33 33 34 34 34 34 35 37 39 39 38 37 35 33 32 31 30 31 31 32 32 33 33
24 25 24 25 26 26 26 27 27 27 28 28 28 28 28 29 31 33 34 33 33 34 35 34 34 35 36 37 38 39 38 36 33 31 30 30 30 31 32 32 33 33
23 24 25 25 26 27 27 27 27 28 28 29 30 29 29 29 29 30 31 32 34 35 35 34 34 35 36 37 38 39 38 36 33 31 30 29 29 30 31 32 32 32
22 23 24 25 25 25 26 27 28 28 29 30 30 29 28 27 27 28 29 30 32 32 33 33 33 34 35 36 38 39 38 36 33 31 30 29 29 30 30 30 31 31
22 24 24 25 25 24 25 26 27 27 28 29 29 28 28 27 27 27 27 27 28 30 31 32 32 33 35 36 38 39 38 36 35 33 32 31 31 31 30 30 30 31
Wind_Direction
215 213 214 213 210 208 205 201 198 196 194 195 199 206 212 212 209 209 213 213 212 213 213 213 212 211 209 206 203 202 201 199 198 197 196 194 194 194 194 194 195 194
216 215 215 216 215 214 213 210 205 203 201 199 201 204 207 209 208 207 210 212 212 213 214 213 211 210 208 206 204 202 201 200 199 198 198 197 196 196 197 196 196 195
215 215 215 216 217 216 218 217 213 210 208 206 204 200 199 201 203 203 205 209 210 211 212 211 210 208 206 205 203 202 201 200 200 200 199 198 198 198 198 197 196 196
213 214 214 216 217 217 218 219 216 214 211 210 209 204 197 196 197 198 201 205 206 206 207 208 207 205 204 203 202 202 202 202 202 201 200 198 199 199 198 198 197 197
212 212 212 215 216 216 218 219 217 215 213 212 211 207 201 196 195 195 198 201 203 204 204 203 203 203 203 203 203 203 202 202 203 202 200 199 199 199 198 197 196 195
213 212 211 212 213 213 216 218 218 215 212 211 210 208 205 200 197 196 197 199 201 202 202 201 202 202 204 204 203 203 202 201 201 200 199 199 198 198 198 197 196 197
214 212 210 210 210 211 213 215 217 215 212 210 209 208 206 203 200 198 198 198 200 202 202 202 201 201 202 202 201 200 200 200 200 198 197 198 197 198 198 198 198 197
215 212 210 209 208 209 211 213 214 215 213 211 210 209 207 204 202 200 199 198 198 199 200 201 201 201 200 199 198 196 196 197 198 197 196 196 196 197 198 198 198 196
214 212 210 209 208 207 209 211 212 213 212 212 211 210 207 204 202 200 198 198 198 198 200 201 200 199 197 197 195 194 192 194 197 197 196 196 195 195 195 194 194 195
212 211 210 209 209 208 208 208 208 207 208 210 211 211 209 205 202 200 196 194 195 197 199 198 197 196 196 196 195 195 193 193 194 195 196 196 195 193 193 194 195 196
209 208 208 209 210 210 209 206 203 202 203 206 208 209 209 206 204 201 197 194 193 196 197 197 196 196 195 195 196 195 195 194 193 194 196 197 196 197 198 199 199 200
208 207 207 208 209 210 210 206 201 199 200 202 204 205 206 205 204 202 200 197 195 195 196 195 195 195 195 195 194 194 194 194 194 195 197 198 199 201 202 203 203 203
208 208 207 207 208 209 209 206 202 200 198 198 200 200 201 202 202 202 201 199 197 195 194 193 192 193 194 194 193 191 190 191 193 194 196 198 200 201 202 203 204 205
209 208 207 206 206 207 207 205 204 202 198 197 197 198 200 200 200 200 199 199 198 196 193 193 192 191 191 191 190 189 189 191 192 193 194 196 198 200 201 203 205 207
209 208 206 204 203 204 204 203 204 202 197 196 197 197 198 198 197 198 197 196 196 195 193 193 193 192 191 191 189 189 190 191 191 192 192 193 194 197 200 202 204 206
208 206 203 201 201 202 202 200 201 200 197 196 196 195 195 195 195 195 196 194 193 193 193 193 193 193 193 192 191 190 189 189 188 189 191 192 193 194 196 199 201 202
204 202 200 199 199 200 200 199 198 199 197 195 195 193 192 192 193 194 194 194 193 192 192 193 194 195 194 192 192 191 189 186 186 187 190 192 194 194 193 194 196 198
202 200 198 197 197 199 200 197 196 196 195 194 194 192 190 190 192 192 192 193 192 191 191 193 194 195 195 193 192 191 190 188 188 189 190 192 194 193 192 191 191 193
198 195 194 195 196 199 198 194 193 193 194 193 193 191 189 188 189 191 191 191 191 191 191 192 193 195 195 194 193 192 192 192 192 192 192 193 193 192 191 190 189 189
191 189 191 194 196 195 192 190 191 191 192 193 192 191 188 185 187 190 190 191 191 191 191 191 193 194 194 195 194 194 194 195 195 195 194 194 194 193 191 190 190 191
189 190 192 195 195 191 187 187 189 189 190 190 190 192 190 187 187 189 189 190 191 191 191 192 193 194 194 195 195 195 195 195 194 193 193 193 193 193 193 193 194 195
191 193 193 191 189 186 185 185 186 187 188 189 189 192 193 189 187 188 188 188 190 192 193 193 194 194 194 196 196 195 193 192 191 191 191 191 192 193 195 196 197 198
193 192 190 187 186 186 185 185 185 185 187 187 188 190 192 191 189 190 190 189 190 192 193 193 193 193 193 195 196 195 192 189 189 190 189 190 191 194 197 198 199 202
195 192 189 188 188 188 187 185 185 186 187 188 190 191 192 193 192 190 190 190 192 194 194 194 193 193 193 195 196 195 191 188 187 186 186 189 191 194 198 200 201 204
198 195 192 190 190 191 189 187 187 188 189 190 192 192 191 192 193 191 191 192 194 196 196 196 193 191 193 195 196 195 192 188 186 185 185 188 191 193 197 201 204 207
202 200 198 195 193 192 191 190 189 188 188 189 190 191 189 190 192 192 192 193 195 196 198 197 194 190 193 197 197 197 195 191 188 188 188 190 192 193 195 199 204 207